When you browse on this site, cookies collect data to enhance your experience and personalize the content and advertising you see.
Visit our Privacy Policy to learn more. By continuing to use the site, you agree to this use of cookies and data.
  • en Suisse
  • Liste des pays
  • À 7 jours
  • Température de l'eau
  • Carte satellitaire
  • Carte météo
  • Widgets météo
  • user-avatar
    Se connecter

    Météo par heure à Porto Alegre

    Ce jour, 17 Novembre, Samedi

    Heure Température Précipitation Vent Pression Humidité
    00:00 +21°C° 0 mm 4 m/s 759 mmHg 67%
    01:00 +20°C° 0 mm 4 m/s 759 mmHg 67%
    02:00 +20°C° 0 mm 3 m/s 759 mmHg 67%
    03:00 +20°C° 0 mm 3 m/s 759 mmHg 68%
    04:00 +19°C° 0 mm 3 m/s 758 mmHg 68%
    05:00 +19°C° 0 mm 3 m/s 758 mmHg 68%
    06:00 +19°C° 0 mm 3 m/s 758 mmHg 69%
    07:00 +22°C° 0 mm 3 m/s 758 mmHg 61%
    08:00 +25°C° 0 mm 3 m/s 758 mmHg 54%
    09:00 +28°C° 0 mm 3 m/s 758 mmHg 46%
    10:00 +29°C° 0.1 mm 2 m/s 757 mmHg 45%
    11:00 +30°C° 0.1 mm 2 m/s 757 mmHg 44%
    12:00 +31°C° 0.1 mm 2 m/s 757 mmHg 43%
    13:00 +31°C° 0.1 mm 2 m/s 756 mmHg 48%
    14:00 +30°C° 0.1 mm 2 m/s 756 mmHg 53%
    15:00 +29°C° 0.1 mm 2 m/s 756 mmHg 58%
    16:00 +28°C° 0 mm 2 m/s 755 mmHg 62%
    17:00 +27°C° 0 mm 1 m/s 755 mmHg 67%
    18:00 +26°C° 0 mm 1 m/s 754 mmHg 71%
    19:00 +26°C° 0.3 mm 2 m/s 754 mmHg 73%
    20:00 +25°C° 0.3 mm 2 m/s 754 mmHg 74%
    21:00 +24°C° 0.3 mm 2 m/s 754 mmHg 75%
    22:00 +24°C° 1 mm 2 m/s 754 mmHg 79%
    23:00 +23°C° 1 mm 2 m/s 754 mmHg 83%

    Demain, 18 Novembre, Dimanche

    Heure Température Précipitation Vent Pression Humidité
    00:00 +23°C° 1 mm 1 m/s 754 mmHg 87%
    01:00 +23°C° 4.2 mm 1 m/s 754 mmHg 90%
    02:00 +21°C° 4.2 mm 2 m/s 754 mmHg 92%
    03:00 +21°C° 4.2 mm 2 m/s 753 mmHg 95%
    04:00 +21°C° 2.4 mm 2 m/s 753 mmHg 95%
    05:00 +22°C° 2.4 mm 1 m/s 753 mmHg 95%
    06:00 +22°C° 2.4 mm 1 m/s 753 mmHg 95%
    07:00 +23°C° 0.5 mm 1 m/s 753 mmHg 94%
    08:00 +23°C° 0.5 mm 2 m/s 754 mmHg 93%
    09:00 +24°C° 0.5 mm 2 m/s 754 mmHg 92%
    10:00 +25°C° 0.1 mm 2 m/s 755 mmHg 88%
    11:00 +26°C° 0.1 mm 3 m/s 755 mmHg 83%
    12:00 +27°C° 0.1 mm 3 m/s 755 mmHg 78%
    13:00 +26°C° 0.8 mm 3 m/s 755 mmHg 80%
    14:00 +25°C° 0.8 mm 4 m/s 756 mmHg 82%
    15:00 +23°C° 0.8 mm 5 m/s 756 mmHg 84%
    16:00 +22°C° 0.2 mm 4 m/s 756 mmHg 83%
    17:00 +21°C° 0.2 mm 4 m/s 756 mmHg 82%
    18:00 +20°C° 0.2 mm 3 m/s 757 mmHg 81%
    19:00 +20°C° 0 mm 3 m/s 758 mmHg 82%
    20:00 +19°C° 0 mm 2 m/s 758 mmHg 84%
    21:00 +19°C° 0 mm 1 m/s 759 mmHg 85%
    22:00 +18°C° 0 mm 2 m/s 760 mmHg 84%
    23:00 +17°C° 0 mm 2 m/s 760 mmHg 83%

    Après-demain, 19 Novembre, Lundi

    Heure Température Précipitation Vent Pression Humidité
    00:00 +17°C° 0 mm 2 m/s 760 mmHg 83%
    01:00 +16°C° 0 mm 2 m/s 760 mmHg 82%
    02:00 +16°C° 0 mm 2 m/s 760 mmHg 81%
    03:00 +16°C° 0 mm 2 m/s 760 mmHg 80%
    04:00 +16°C° 0 mm 2 m/s 760 mmHg 81%
    05:00 +15°C° 0 mm 2 m/s 761 mmHg 81%
    06:00 +15°C° 0 mm 1 m/s 761 mmHg 82%
    07:00 +18°C° 0 mm 1 m/s 761 mmHg 73%
    08:00 +19°C° 0 mm 2 m/s 761 mmHg 64%
    09:00 +21°C° 0 mm 2 m/s 761 mmHg 55%
    10:00 +23°C° 0 mm 2 m/s 761 mmHg 50%
    11:00 +25°C° 0 mm 2 m/s 760 mmHg 45%
    12:00 +26°C° 0 mm 2 m/s 760 mmHg 40%
    13:00 +26°C° 0 mm 2 m/s 760 mmHg 40%
    14:00 +27°C° 0 mm 3 m/s 759 mmHg 40%
    15:00 +27°C° 0 mm 3 m/s 759 mmHg 40%
    16:00 +26°C° 0 mm 3 m/s 758 mmHg 46%
    17:00 +25°C° 0 mm 3 m/s 758 mmHg 51%
    18:00 +22°C° 0 mm 3 m/s 758 mmHg 56%
    19:00 +21°C° 0 mm 3 m/s 759 mmHg 62%
    20:00 +20°C° 0 mm 3 m/s 759 mmHg 67%
    21:00 +18°C° 0 mm 3 m/s 760 mmHg 72%
    22:00 +18°C° 0 mm 3 m/s 760 mmHg 75%
    23:00 +18°C° 0 mm 3 m/s 760 mmHg 78%

    20 Novembre, Mardi

    Heure Température Précipitation Vent Pression Humidité
    00:00 +17°C° 0 mm 3 m/s 760 mmHg 81%
    01:00 +17°C° 0 mm 2 m/s 760 mmHg 83%
    02:00 +17°C° 0 mm 2 m/s 760 mmHg 86%
    03:00 +16°C° 0 mm 2 m/s 759 mmHg 88%
    04:00 +16°C° 0 mm 2 m/s 760 mmHg 88%
    05:00 +16°C° 0 mm 2 m/s 760 mmHg 88%
    06:00 +17°C° 0 mm 2 m/s 760 mmHg 89%
    07:00 +19°C° 0 mm 2 m/s 760 mmHg 79%
    08:00 +23°C° 0 mm 2 m/s 761 mmHg 69%
    09:00 +25°C° 0 mm 2 m/s 761 mmHg 59%
    10:00 +27°C° 0 mm 2 m/s 760 mmHg 55%
    11:00 +28°C° 0 mm 2 m/s 760 mmHg 50%
    12:00 +30°C° 0 mm 3 m/s 760 mmHg 46%
    13:00 +30°C° 0 mm 3 m/s 759 mmHg 46%
    14:00 +30°C° 0 mm 4 m/s 759 mmHg 46%
    15:00 +30°C° 0 mm 4 m/s 758 mmHg 47%
    16:00 +29°C° 0 mm 5 m/s 758 mmHg 52%
    17:00 +27°C° 0 mm 5 m/s 758 mmHg 58%
    18:00 +26°C° 0 mm 5 m/s 758 mmHg 64%
    19:00 +23°C° 0 mm 4 m/s 759 mmHg 68%
    20:00 +22°C° 0 mm 4 m/s 759 mmHg 73%
    21:00 +20°C° 0 mm 4 m/s 760 mmHg 78%
    22:00 +20°C° 0 mm 4 m/s 760 mmHg 80%
    23:00 +19°C° 0 mm 3 m/s 760 mmHg 82%

    21 Novembre, Mercredi

    Heure Température Précipitation Vent Pression Humidité
    00:00 +19°C° 0 mm 3 m/s 760 mmHg 84%
    01:00 +19°C° 0 mm 3 m/s 759 mmHg 85%
    02:00 +18°C° 0 mm 3 m/s 759 mmHg 87%
    03:00 +18°C° 0 mm 2 m/s 759 mmHg 89%
    04:00 +18°C° 0 mm 2 m/s 759 mmHg 89%
    05:00 +18°C° 0 mm 2 m/s 759 mmHg 88%
    06:00 +18°C° 0 mm 2 m/s 760 mmHg 88%
    07:00 +20°C° 0 mm 2 m/s 760 mmHg 79%
    08:00 +24°C° 0 mm 2 m/s 760 mmHg 69%
    09:00 +26°C° 0 mm 2 m/s 760 mmHg 59%
    10:00 +28°C° 0 mm 2 m/s 760 mmHg 54%
    11:00 +30°C° 0 mm 3 m/s 759 mmHg 50%
    12:00 +31°C° 0 mm 3 m/s 759 mmHg 45%
    13:00 +33°C° 0 mm 3 m/s 758 mmHg 44%
    14:00 +33°C° 0 mm 3 m/s 757 mmHg 44%
    15:00 +33°C° 0 mm 4 m/s 757 mmHg 44%
    16:00 +32°C° 0 mm 4 m/s 756 mmHg 50%
    17:00 +29°C° 0 mm 4 m/s 756 mmHg 55%
    18:00 +27°C° 0 mm 4 m/s 756 mmHg 61%
    19:00 +26°C° 0 mm 4 m/s 756 mmHg 66%
    20:00 +23°C° 0 mm 4 m/s 757 mmHg 70%
    21:00 +22°C° 0 mm 4 m/s 757 mmHg 75%
    22:00 +22°C° 0 mm 4 m/s 757 mmHg 76%
    23:00 +21°C° 0 mm 3 m/s 757 mmHg 78%

    22 Novembre, Jeudi

    Heure Température Précipitation Vent Pression Humidité
    00:00 +21°C° 0 mm 3 m/s 757 mmHg 79%
    01:00 +20°C° 0 mm 3 m/s 756 mmHg 80%
    02:00 +20°C° 0 mm 2 m/s 756 mmHg 81%
    03:00 +20°C° 0 mm 2 m/s 756 mmHg 83%
    04:00 +20°C° 0 mm 2 m/s 756 mmHg 83%
    05:00 +20°C° 0 mm 2 m/s 756 mmHg 82%
    06:00 +21°C° 0 mm 1 m/s 756 mmHg 82%
    07:00 +23°C° 0 mm 1 m/s 756 mmHg 73%
    08:00 +26°C° 0 mm 1 m/s 756 mmHg 64%
    09:00 +29°C° 0 mm 2 m/s 756 mmHg 54%
    10:00 +31°C° 0 mm 1 m/s 756 mmHg 49%
    11:00 +33°C° 0 mm 1 m/s 756 mmHg 45%
    12:00 +35°C° 0 mm 1 m/s 755 mmHg 40%
    13:00 +36°C° 0 mm 1 m/s 755 mmHg 39%
    14:00 +36°C° 0 mm 1 m/s 754 mmHg 38%
    15:00 +37°C° 0 mm 2 m/s 753 mmHg 37%
    16:00 +36°C° 0 mm 2 m/s 753 mmHg 43%
    17:00 +34°C° 0 mm 3 m/s 753 mmHg 49%
    18:00 +33°C° 0 mm 3 m/s 753 mmHg 55%
    19:00 +30°C° 0 mm 3 m/s 753 mmHg 61%
    20:00 +28°C° 0 mm 3 m/s 753 mmHg 67%
    21:00 +26°C° 0 mm 3 m/s 754 mmHg 74%
    22:00 +26°C° 0 mm 2 m/s 754 mmHg 76%
    23:00 +25°C° 0 mm 2 m/s 754 mmHg 79%
    Voir plus